RH
28 26 26 25 24 23 24 26 27 28 28 28 26 26 29 29 29 33 36 36 35 33 32 35 43 42 38 34 33 33 32 31 32
18 17 16 16 15 15 16 19 23 23 22 24 25 27 30 34 35 35 37 38 38 35 32 30 32 39 47 45 37 34 33 33 32
12 11 10 9 9 9 9 10 11 12 15 21 24 25 29 30 31 36 39 40 40 38 34 32 32 33 45 50 51 45 32 32 34
8 8 7 7 8 8 8 8 9 9 9 10 14 18 20 24 23 26 35 37 38 40 39 35 32 31 33 42 52 54 44 40 35
7 7 8 8 8 8 8 8 8 8 8 9 9 10 12 15 19 23 28 34 37 40 41 43 41 35 33 35 44 56 61 62 56
8 8 9 8 8 8 8 8 8 9 9 9 10 13 14 16 19 23 28 37 44 40 39 39 46 49 49 44 40 45 56 67 66
8 9 9 8 8 8 9 9 10 11 12 13 13 15 16 17 25 30 29 27 32 38 38 41 38 46 55 61 60 53 50 50 54
9 9 10 9 9 9 10 10 11 12 13 14 15 16 17 17 18 24 25 26 28 29 29 36 33 33 38 49 54 61 62 56 54
9 9 9 9 9 9 9 10 10 11 12 13 15 17 17 18 18 19 19 22 22 22 21 19 18 21 24 31 39 46 54 59 57
9 9 10 10 11 12 13 14 16 17 17 17 18 18 18 18 19 20 21 22 22 21 19 19 17 13 15 17 24 30 36 45 57
9 10 11 11 13 14 15 17 19 21 22 23 24 24 24 23 24 24 24 22 22 22 22 21 19 19 17 14 13 14 20 25 34
10 11 12 13 14 15 17 20 22 25 26 25 26 27 26 26 25 21 18 18 18 19 20 20 21 20 17 17 18 18 16 14 16
12 13 14 15 16 17 20 23 25 26 25 25 23 23 21 21 20 19 19 19 19 18 19 20 19 19 19 19 21 23 23 23 21
14 14 17 18 19 22 25 25 25 25 25 24 22 23 21 20 21 21 21 21 20 20 20 22 23 25 26 27 25 26 24 22 22
15 16 18 22 23 26 26 27 28 28 26 23 22 22 22 21 22 22 23 23 24 23 22 23 26 27 30 31 31 29 27 26 26
17 18 21 25 26 27 27 27 27 27 27 24 22 24 25 25 25 24 24 24 25 26 27 26 27 29 30 31 30 29 29 27 29
19 22 23 24 27 26 28 29 30 28 28 28 25 27 30 30 27 28 27 27 28 29 28 28 30 31 31 31 33 33 32 31 36
20 23 23 25 30 29 29 31 31 31 31 31 31 30 31 27 30 28 26 27 31 33 30 29 31 33 31 31 32 34 34 36 41
18 22 25 28 31 32 31 31 32 32 34 34 38 35 33 31 28 27 26 27 32 32 33 31 33 32 30 30 31 32 34 39 47
17 20 26 28 29 31 32 33 31 34 33 33 33 34 34 34 35 31 29 28 32 33 35 36 33 34 33 31 32 32 34 42 49